Location: Tamazert
(32.6352°N, 5.2072°W)
Time: 22:24:01
(UTC+00:00)

Cosmos 2251 Rocket - Pass Details

Date: 22 May 2022
Orbit: 764 x 791 km, 74.0° (Epoch: 24 June)

Event Time Altitude Azimuth Distance (km) Brightness Sun altitude
Rises 04:16:15 0° 341° (NNW) 3,242 7.0 -12.2°
Reaches altitude 10° 04:18:37 10° 341° (NNW) 2,315 6.2 -11.7°
Maximum altitude 04:23:52 79° 255° (WSW) 792 3.5 -10.8°
Drops below altitude 10° 04:29:08 10° 169° (S) 2,319 5.8 -9.9°
Sets 04:31:31 0° 168° (SSE) 3,247 6.5 -9.5°
